Location: Namasale
(1.5000°N, 32.6167°E)
Time: 20:03:03
(UTC+00:00)

Delta 2 Rocket - Pass Details

Date: 09 April 2020
Orbit: 890 x 1677 km, 26.4° (Epoch: 28 May)

Event Time Altitude Azimuth Distance (km) Brightness Sun altitude
Rises 17:45:08 0° 238° (WSW) 3,553 7.6 -28.0°
Reaches altitude 10° 17:47:46 10° 235° (SW) 2,570 6.7 -28.7°
Enters shadow 17:52:46 59° 206° (SSW) 1,017 4.0 -29.9°
